Вернуться в каталог

STARLINK-30803

АктивенСвязьVLEO
NORAD 58157·PAYLOAD·🇺🇸 United States

Запущен Oct 29, 2023 с Vandenberg Space Force Base

Loading…

Ближайшие Пролёты (ближайшие 24 часа)

TLE

СвежийSource: CelesTrak SupGP

Эпоха: Sep 15, 2026, 03:07 UTC

1 58157C 23166H   26258.13034722 -.00024638  00000+0 -79255-3 0  2582
2 58157  53.1589  58.2086 0001103  86.7291 288.3922 15.31704680    16

Отслеживайте STARLINK-30803 в реальном времени с AllMySat

Download on the App Store